{"data":{"norad_id":68774,"epoch":"2026-09-19T07:48:00.660960Z","epoch_age_seconds":141505,"freshness":"FRESH","line1":"1 68774U 26086J   26262.32500765  .00017834  00000+0  55336-3 0  9997","line2":"2 68774  97.2810 297.7495 0000683 113.8493 246.2822 15.33448643 23507","mean_motion":15.33448643,"eccentricity":6.83e-5,"inclination_deg":97.281,"raan_deg":297.7495,"arg_perigee_deg":113.8493,"mean_anomaly_deg":246.2822,"bstar":0.00055336,"rev_number":2350,"period_min":93.905981564718,"perigee_km":465.06491287904,"apogee_km":465.99975811027,"semimajor_km":6843.6693354947,"source":"CELESTRAK","updated_at":"2026-09-20T09:00:43.999102Z"}}